MMS 3

Last updated on Sun Apr 12 2026 00:02:44 GMT+0000 (Coordinated Universal Time)

1 40484U 15011C 26101.58335647 -.00001083 00000+0 00000+0 0 9990 2 40484 71.1627 349.7359 8389392 165.9036 344.9982 0.28116651 1312
UTC large
Height (km)
Speed (km/s)
/
Latitude / Longitude
Inclination (degrees)
Orbital Period (minutes)
Azimuth
Elevation
Range (km)
Doppler Factor

Next 0 passes for location: London (51.5072 / 0.1276)

Sorry there are no passes over London.
MMS 3